GW2089 Weather Reports


Display with metric or nautical units.
time (UTC)temp
F
wind
direction
speed
MPH
gust
MPH
rain 1hr
in
rain 24hr
in
rain mn
in
humidity
%
barometer
mb
20260905152144 62 249 2.0 2.0 0.00 0.08 0.08 77 996.8
20260905151638 62 249 2.0 2.0 0.00 0.08 0.08 77 996.8
20260905151134 62 236 3.0 3.0 0.00 0.08 0.08 77 996.8
20260905150629 62 228 1.0 2.0 0.00 0.08 0.08 77 996.7
20260905150128 62 9 0.0 1.0 0.00 0.08 0.08 76 996.6
20260905145626 62 1 0.0 1.0 0.00 0.08 0.08 76 996.8
20260905145125 62 261 2.0 2.0 0.00 0.08 0.08 77 996.7
20260905144620 62 291 0.0 0.0 0.00 0.08 0.08 76 996.8
20260905144119 63 24 1.0 1.0 0.00 0.08 0.08 75 996.7
20260905143614 63 239 1.0 1.0 0.00 0.08 0.08 73 996.7
20260905143109 64 261 2.0 2.0 0.00 0.08 0.08 71 996.8
20260905142607 64 272 2.0 2.0 0.00 0.08 0.08 71 996.4
20260905142102 63 253 1.0 2.0 0.00 0.08 0.08 70 996.6
20260905141601 64 309 1.0 1.0 0.00 0.08 0.08 70 996.4
20260905141058 64 231 1.0 2.0 0.00 0.08 0.08 69 996.4
20260905140553 65 123 3.0 5.0 0.00 0.08 0.08 68 996.4
20260905140052 64 234 2.0 2.0 0.00 0.08 0.08 68 996.3
20260905135548 64 252 1.0 2.0 0.00 0.08 0.08 68 996.4
20260905135047 64 193 3.0 3.0 0.00 0.08 0.08 70 996.3
20260905134543 64 217 1.0 2.0 0.00 0.08 0.08 70 996.2
20260905134041 64 335 0.0 1.0 0.00 0.08 0.08 73 996.4
20260905133536 64 273 0.0 0.0 0.00 0.08 0.08 74 996.2
20260905133031 64 10 0.0 0.0 0.00 0.08 0.08 77 996.2
20260905132531 63 18 2.0 3.0 0.00 0.08 0.08 77 996.1
20260905132026 64 302 1.0 1.0 0.00 0.08 0.08 77 996.2
20260905131521 64 288 0.0 1.0 0.00 0.08 0.08 78 996.2
20260905131016 61 285 0.0 1.0 0.00 0.08 0.08 85 995.8
20260905130515 61 354 0.0 1.0 0.00 0.08 0.08 85 996.0
20260905130011 61 246 1.0 1.0 0.05 0.08 0.08 84 996.0
20260905125505 62 231 1.0 2.0 0.05 0.08 0.08 83 996.1
20260905125000 62 267 1.0 1.0 0.00 0.07 0.07 81 996.2
20260905124457 63 252 1.0 1.0 0.00 0.07 0.07 78 996.0
20260905123952 64 356 0.0 0.0 0.00 0.07 0.07 76 995.9
20260905123448 64 19 0.0 1.0 0.00 0.07 0.07 75 996.0
20260905122948 64 271 1.0 1.0 0.00 0.07 0.07 73 996.1
20260905122443 64 209 0.0 0.0 0.00 0.07 0.07 74 995.9
20260905121938 64 252 1.0 1.0 0.00 0.07 0.07 73 996.1
20260905121434 66 285 1.0 1.0 0.00 0.07 0.07 70 995.9
20260905120933 67 218 4.0 6.0 0.00 0.07 0.07 68 995.7
20260905120427 66 331 1.0 1.0 0.00 0.07 0.07 71 995.7
20260905115923 64 242 1.0 1.0 0.00 0.07 0.07 74 995.6
20260905115422 63 282 1.0 1.0 0.00 0.07 0.07 80 995.7
20260905114917 63 247 3.0 3.0 0.00 0.07 0.07 80 995.4
20260905114416 63 341 0.0 0.0 0.00 0.07 0.07 80 995.7
20260905113910 63 245 4.0 6.0 0.00 0.07 0.07 78 995.5
20260905113405 63 262 2.0 3.0 0.00 0.07 0.07 79 995.4
20260905112901 63 300 3.0 5.0 0.00 0.07 0.07 79 995.4
20260905112356 63 283 1.0 2.0 0.00 0.07 0.07 80 995.5
20260905111850 62 277 0.0 1.0 0.00 0.07 0.07 83 995.6
20260905111345 61 255 0.0 0.0 0.00 0.07 0.07 84 995.3
20260905110844 61 327 2.0 2.0 0.00 0.07 0.07 83 995.2
20260905110338 61 241 0.0 1.0 0.00 0.07 0.07 83 995.3
20260905105834 61 266 2.0 3.0 0.00 0.07 0.07 83 995.2
20260905105333 61 218 2.0 3.0 0.00 0.07 0.07 84 995.3
20260905104827 61 263 1.0 1.0 0.00 0.07 0.07 85 995.3
20260905104324 62 268 2.0 2.0 0.00 0.07 0.07 85 994.9
20260905103823 62 345 1.0 1.0 0.00 0.07 0.07 84 994.9
20260905103319 62 12 0.0 1.0 0.00 0.07 0.07 83 994.9
20260905102815 62 303 0.0 0.0 0.00 0.07 0.07 83 994.7
20260905102311 62 266 0.0 1.0 0.00 0.07 0.07 82 994.8
20260905101811 62 261 0.0 1.0 0.00 0.07 0.07 82 994.8
20260905101309 62 272 0.0 1.0 0.00 0.07 0.07 82 994.7
20260905100804 62 284 1.0 2.0 0.00 0.07 0.07 83 994.6
20260905100300 62 253 0.0 1.0 0.00 0.07 0.07 84 994.7
20260905095759 62 358 1.0 1.0 0.00 0.07 0.07 84 994.5
20260905095259 61 327 0.0 0.0 0.00 0.07 0.07 86 994.6
20260905094754 61 264 0.0 1.0 0.00 0.07 0.07 87 994.6
20260905094249 60 275 0.0 0.0 0.00 0.07 0.07 88 994.4
20260905093748 60 239 1.0 2.0 0.00 0.07 0.07 89 994.7
20260905093244 59 208 3.0 5.0 0.00 0.07 0.07 90 994.6
20260905092740 59 266 2.0 3.0 0.00 0.07 0.07 90 994.5
20260905092235 59 270 0.0 0.0 0.00 0.07 0.07 90 994.5
20260905091735 59 228 1.0 2.0 0.00 0.07 0.07 90 994.3
20260905091229 59 262 1.0 1.0 0.00 0.07 0.07 90 994.4
20260905090723 59 252 2.0 3.0 0.00 0.07 0.07 91 994.4
20260905090219 59 228 6.0 9.0 0.00 0.07 0.07 91 994.2
20260905085718 58 209 3.0 5.0 0.00 0.07 0.07 91 994.1
20260905085212 59 295 1.0 2.0 0.00 0.07 0.07 92 994.2
20260905084707 59 267 1.0 2.0 0.00 0.07 0.07 93 994.1
20260905084206 58 245 2.0 3.0 0.00 0.07 0.07 93 994.3
20260905083701 58 219 1.0 1.0 0.00 0.07 0.07 94 994.2
20260905083158 58 215 2.0 3.0 0.00 0.07 0.07 94 993.9
20260905082653 58 246 1.0 1.0 0.00 0.07 0.07 94 994.1
20260905082148 58 263 2.0 2.0 0.00 0.07 0.07 94 994.0
20260905081643 58 350 0.0 0.0 0.00 0.07 0.07 95 994.0
20260905081138 58 249 1.0 1.0 0.00 0.07 0.07 95 993.9
20260905080633 58 209 1.0 2.0 0.00 0.07 0.07 95 994.0
20260905080127 58 272 1.0 2.0 0.00 0.07 0.07 96 994.0
20260905075626 57 243 1.0 1.0 0.00 0.07 0.07 96 994.0
20260905075126 57 242 0.0 1.0 0.00 0.07 0.07 96 993.8
20260905074625 57 277 0.0 0.0 0.00 0.07 0.07 96 993.6
20260905074120 57 258 0.0 0.0 0.00 0.07 0.07 96 993.7
20260905073616 57 241 3.0 3.0 0.00 0.07 0.07 96 993.8
20260905073112 57 238 2.0 2.0 0.00 0.07 0.07 96 993.5
20260905072611 57 251 2.0 2.0 0.07 0.07 0.07 96 993.7
20260905072106 56 242 1.0 2.0 0.07 0.07 0.07 96 993.7
20260905071603 56 225 2.0 2.0 0.00 0.06 0.06 96 993.8
20260905071103 56 247 0.0 0.0 0.05 0.06 0.06 96 993.8
20260905070558 56 301 0.0 0.0 0.05 0.06 0.06 96 993.7
20260905070054 56 239 0.0 0.0 0.12 0.05 0.05 96 993.5
20260905065552 56 215 2.0 2.0 0.19 0.05 0.05 96 993.7
20260905065047 56 236 1.0 1.0 0.07 0.03 0.03 96 993.6
20260905064542 56 254 1.0 1.0 0.00 0.02 0.02 96 993.6
20260905064037 56 271 0.0 0.0 0.00 0.02 0.02 95 993.5
20260905063536 56 235 2.0 2.0 0.05 0.02 0.02 95 993.5
20260905063033 56 216 1.0 2.0 0.05 0.02 0.02 95 993.5
20260905062532 56 256 0.0 1.0 0.00 0.01 0.01 95 993.4
20260905062027 56 250 0.0 0.0 0.00 0.01 0.01 95 993.5
20260905061522 56 218 2.0 2.0 0.00 0.01 0.01 95 993.4
20260905061021 56 239 3.0 3.0 0.00 0.01 0.01 95 993.3
20260905060518 56 240 0.0 0.0 0.00 0.01 0.01 95 993.4
20260905060013 56 265 0.0 0.0 0.00 0.01 0.01 95 993.3
20260905055511 56 276 1.0 1.0 0.00 0.01 0.01 95 993.5
20260905055006 56 248 1.0 2.0 0.00 0.01 0.01 95 993.4
20260905054502 56 266 3.0 3.0 0.00 0.01 0.01 95 993.3
20260905053957 56 252 1.0 2.0 0.00 0.01 0.01 95 993.2
20260905053452 56 249 2.0 2.0 0.07 0.01 0.01 95 993.2
20260905052948 56 251 0.0 1.0 0.07 0.01 0.01 94 993.0
20260905052447 56 239 1.0 2.0 0.00 0.00 0.00 94 993.2
20260905051947 56 248 1.0 2.0 0.00 0.00 0.00 94 993.1
20260905051442 56 237 1.0 2.0 0.00 0.00 0.00 95 993.2
20260905050939 55 269 0.0 1.0 0.00 0.00 0.00 95 993.1
20260905050435 55 207 3.0 3.0 0.00 0.00 0.00 95 992.9
20260905045931 55 222 4.0 5.0 0.00 0.00 0.00 95 992.9
20260905045425 55 268 4.0 5.0 0.00 0.00 0.00 95 992.8
20260905044920 55 279 1.0 2.0 0.00 0.00 0.00 95 992.8
20260905044410 55 254 0.0 0.0 0.00 0.00 0.00 95 992.8
20260905043909 55 265 0.0 0.0 0.00 0.00 0.00 95 993.0
20260905043404 55 252 0.0 1.0 0.00 0.00 0.00 95 993.0
20260905042903 55 279 0.0 0.0 0.00 0.00 0.00 95 992.9
20260905042358 55 271 0.0 0.0 0.00 0.00 0.00 95 992.7
20260905041853 54 235 1.0 1.0 0.00 0.00 0.00 95 993.0
20260905041349 54 289 0.0 0.0 0.00 0.00 0.00 95 992.9
20260905040844 54 238 1.0 1.0 0.00 0.00 0.00 95 992.8
20260905040343 54 237 1.0 1.0 0.00 0.00 0.00 95 992.8
20260905035842 54 272 0.0 0.0 0.00 0.00 0.00 95 992.9
20260905035338 54 232 2.0 3.0 0.00 0.00 0.00 95 993.0
20260905034834 54 245 1.0 1.0 0.00 0.00 0.00 95 993.0
20260905034330 54 234 1.0 1.0 0.00 0.00 0.00 96 993.0
20260905033828 54 233 2.0 2.0 0.00 0.00 0.00 96 993.1
20260905033324 54 180 1.0 2.0 0.00 0.00 0.00 96 993.0
20260905032823 54 251 1.0 2.0 0.00 0.00 0.00 96 993.0
20260905032319 54 255 1.0 2.0 0.00 0.00 0.00 96 992.9
20260905031814 54 267 0.0 1.0 0.00 0.00 0.00 96 993.1